Flag Weather past 2 weeks in Sunrise, Florida, U.S.A.

Now
71 °F

Clear.


Feels Like: 70 °F
Forecast: 69 / 84 °F
Wind: No wind

Location: Fort Lauderdale Executive Airport

Current Time: Oct 31, 2014 at 4:28:25 AM

Latest Report: Oct 31, 2014 at 3:53 AM


Visibility: 10 mi

Pressure: 29.83 "Hg

Humidity: 84%

Dew point: 66 °F

Location of SunriseLocation

Historic Weather in Sunrise — Graph

°F

Sunrise temperature yesterday

Maximum temperature yesterday: 86 °F (at 12:53 PM)
Minimum temperature yesterday: 71 °F (at 2:53 AM)
Average temperature yesterday: 78 °F

Past Weeks' High & Low Weather Summary

 TemperatureHumidityPressure
High86 °F (Oct 18, 1:53 PM)91% (Oct 21, 1:53 AM)30.15 "Hg (Oct 21, 1:53 AM)
Low66 °F (Oct 17, 7:53 AM)35% (Oct 17, 12:53 PM)29.82 "Hg (Oct 24, 3:53 PM)
Average76 °F68%29.95 "Hg
* Reported Oct 16 2:53 AM — Oct 31 2:53 AM, Sunrise, Weather by CustomWeather, © 2014

Note: Actual official high and low records may vary slightly from our data, if they occured in-between our weather recording intervals... More about our weather records

Advertising

Sunrise weather history for previous 24 hours

 ConditionsComfort  
Time TempWeatherWind HumidityBarometerVisibility
2:53 AM
Oct 31
72 °FClear.No wind81%29.85 "Hg10 mi
1:53 AM73 °FClear.No wind76%29.87 "Hg10 mi
12:53 AM73 °FClear.5 mph76%29.89 "Hg10 mi
11:53 PM
Oct 30
74 °FPassing clouds.5 mph76%29.90 "Hg10 mi
10:53 PM75 °FClear.No wind71%29.90 "Hg10 mi
9:53 PM76 °FClear.3 mph69%29.89 "Hg10 mi
8:53 PM76 °FClear.6 mph69%29.88 "Hg10 mi
7:53 PM78 °FClear.6 mph62%29.89 "Hg10 mi
6:53 PM78 °FSunny.8 mph62%29.88 "Hg10 mi
5:53 PM81 °FSunny.8 mph51%29.87 "Hg10 mi
4:53 PM83 °FScattered clouds.8 mph50%29.87 "Hg10 mi
3:53 PM83 °FScattered clouds.9 mph48%29.88 "Hg10 mi
2:53 PM83 °FScattered clouds.8 mph48%29.89 "Hg10 mi
1:53 PM84 °FScattered clouds.10 mph46%29.91 "Hg10 mi
12:53 PM86 °FScattered clouds.3 mph42%29.94 "Hg10 mi
11:53 AM84 °FScattered clouds.No wind43%29.97 "Hg10 mi
10:53 AM81 °FSunny.7 mph58%29.98 "Hg10 mi
9:53 AM78 °FSunny.6 mph66%29.98 "Hg10 mi
6:53 AM71 °FClear.No wind84%29.96 "Hg10 mi
5:53 AM71 °FClear.No wind87%29.95 "Hg10 mi
Weather by CustomWeather, © 2014

See weather overviewHow to use our weather pages